Regional Weather Roundup
Issued by NWS

Home | Current Version | Previous Version | Graphics & Text | Print | Product List | Glossary Off
Versions: 1 2 3 4 5 6 7 8 9 10 11 12 13 14 15 16 17 18 19 20 21 22 23 24 25 26 27 28 29 30 31 32 33 34 35 36 37 38 39 40 41 42 43 44 45 46 47 48 49 50

000
ASUS43 KDMX 210007
RWRIA

WEATHER ROUNDUP FOR IOWA
NATIONAL WEATHER SERVICE DES MOINES IA
700 PM CDT MON OCT 20 2014

NOTE: "FAIR" INDICATES FEW OR NO CLOUDS BELOW 12,000 FEET WITH NO
SIGNIFICANT WEATHER AND/OR OBSTRUCTIONS TO VISIBILITY.

* - THESE STATIONS ARE NOT NWS STATIONS...THUS NOT UNDER NWS
QUALITY CONTROL.  THEY ALSO DO NOT REPORT WEATHER SUCH
AS PRECIPITATION OR FOG.

IAZ001>003-012>014-020>022-031>034-043>046-210100-
   NORTHWEST IOWA

CITY           SKY/WX    TMP DP  RH WIND       PRES   REMARKS
CARROLL *      CLEAR     54  39  58 NW6       30.03S HAZE
CHEROKEE *     CLEAR     58  40  51 CALM      30.04R
DENISON *      CLEAR     59  39  47 CALM      30.03S
LE MARS *      CLEAR     57  39  51 CALM      30.04S
ORANGE CITY *  CLEAR     63  37  39 CALM      30.04S HAZE
SHELDON *      CLEAR     55  37  50 CALM      30.03R HAZE
SIOUX CITY     CLEAR     54  39  57 CALM      30.04S
6HR MIN TEMP:  54; 6HR MAX TEMP:  73;

SPENCER        CLEAR     54  38  54 NW5       30.03S
6HR MIN TEMP:  54; 6HR MAX TEMP:  71;

STORM LAKE *   CLEAR     59  37  44 NW6       30.05S
$$

IAZ055>058-069>071-079>083-090>094-210100-
   SOUTHWEST IOWA

CITY           SKY/WX    TMP DP  RH WIND       PRES   REMARKS
ATLANTIC *     CLEAR     57  41  54 N3        30.03S
AUDUBON *      CLEAR     54  37  54 CALM      30.05S
CLARINDA *     CLEAR     54  43  66 CALM      30.06R
COUNCIL BLFS * CLEAR     64  39  39 CALM      30.04S
CRESTON *      CLEAR     61  41  48 NW6       30.04S
HARLAN  *      CLEAR     54  41  62 N5        30.07S
LAMONI         CLEAR     60  42  51 NW6       30.03S
6HR MIN TEMP:  60; 6HR MAX TEMP:  71;

RED OAK *      CLEAR     57  43  58 W5        30.04S HAZE
SHENANDOAH *   CLEAR     59  41  51 NW3       30.06R
$$

IAZ047>049-059>061-072>074-084-210100-
   CENTRAL IOWA

CITY           SKY/WX    TMP DP  RH WIND       PRES   REMARKS
AMES           CLEAR     59  39  47 NW7       30.01S
6HR MIN TEMP:  59; 6HR MAX TEMP:  70;

ANKENY *       CLEAR     61  41  48 NW5       30.01S
CHARITON *     CLEAR     63  43  48 W5        30.02R
DES MOINES     CLEAR     63  38  39 NW7       30.02R
6HR MIN TEMP:  63; 6HR MAX TEMP:  72;

GRINNELL*      CLEAR     58  41  53 CALM      30.01R
KNOXVILLE *    CLEAR     63  41  45 NW3       30.00R
MARSHALLTOWN   CLEAR     57  41  55 NW8       30.00R
6HR MIN TEMP:  57; 6HR MAX TEMP:  69;

PELLA *        CLEAR     58  42  54 NW6       30.02R
PERRY *          N/A     57  41  54 W7        30.03R
$$

IAZ004>006-015-016-023>025-035-036-210100-
   NORTH CENTRAL IOWA

CITY           SKY/WX    TMP DP  RH WIND       PRES   REMARKS
ALGONA *       CLEAR     61  39  44 NW5       30.03R
CLARION *      CLEAR     57  39  51 N6        30.02R
ESTHERVILLE    CLEAR     57  38  48 N7        30.03R
6HR MIN TEMP:  56; 6HR MAX TEMP:  69;

FORT DODGE *   CLEAR     59  37  44 CALM      30.03R
MASON CITY     CLEAR     50  41  71 NW9       30.03R
6HR MIN TEMP:  50; 6HR MAX TEMP:  67;

FOREST CITY *  CLEAR     55  41  58 W5        30.02R
IOWA FALLS *     N/A     55  39  54 NW6       30.02S
$$

IAZ007>011-017>019-026>030-037>042-050>054-066-210100-
   NORTHEAST IOWA

CITY           SKY/WX    TMP DP  RH WIND       PRES   REMARKS
CEDAR RAPIDS   CLEAR     53  41  63 NW8       29.98R
6HR MIN TEMP:  53; 6HR MAX TEMP:  68;

CHARLES CITY * CLEAR     55  41  58 N7        30.01R
CLINTON *      CLEAR     54  39  58 N7        29.99R
DECORAH *      CLEAR     55  41  58 N7        29.99R
DUBUQUE        CLEAR     53  42  66 NW7       29.97R
6HR MIN TEMP:  52; 6HR MAX TEMP:  64;

MONTICELLO *   CLEAR     59  43  55 N6        29.97R
OELWEIN *      CLEAR     55  41  58 NW8       30.00R
WATERLOO       CLEAR     54  40  59 NW5       29.99R
6HR MIN TEMP:  54; 6HR MAX TEMP:  68;

$$

IAZ064-065-067-068-078-210100-
   EAST CENTRAL IOWA

CITY           SKY/WX    TMP DP  RH WIND       PRES   REMARKS
DAVENPORT      CLEAR     55  40  56 NW6       29.97R
6HR MIN TEMP:  55; 6HR MAX TEMP:  68;

IOWA CITY      CLEAR     61  42  49 NW5       29.99R
6HR MIN TEMP:  61; 6HR MAX TEMP:  68;

MT. PLEASANT * CLEAR     59  42  53 W3        29.98S
MUSCATINE *    CLEAR     57  43  58 NW6       29.97R
QUAD CITIES    CLEAR     61  42  49 NW6       29.96R
6HR MIN TEMP:  61; 6HR MAX TEMP:  68;

$$

IAZ062-063-075>077-085>089-095>099-210100-
   SOUTHEAST IOWA

CITY           SKY/WX    TMP DP  RH WIND       PRES   REMARKS
BURLINGTON     CLEAR     59  43  55 W3        29.97S
6HR MIN TEMP:  59; 6HR MAX TEMP:  69;

FAIRFIELD *    CLEAR     59  41  51 NW6       29.99S
FORT MADISON * CLEAR     59  45  58 W5        29.99S
KEOKUK *       CLEAR     61  45  55 W5        29.98S
OSKALOOSA *      N/A     56  41  57 NW7       30.00S
CENTERVILLE *  CLEAR     50  43  76 W5        30.03S
OTTUMWA        CLEAR     58  42  55 NW6       30.00R
6HR MIN TEMP:  57; 6HR MAX TEMP:  69; 6HR PCP: TRACE;

WASHINGTON *   CLEAR     59  43  55 NW7       29.98S
$$

ABBREVIATIONS USED IN REMARKS
   TC - TEMPERATURES IN CELSIUS
  WCI - WIND CHILL INDEX
   HX - HEAT INDEX
  VSB - VISIBILITY
$$




USA.gov is the U.S. government's official web portal to all federal, state and local government web resources and services.